GW4632 Weather Reports


Display with metric or nautical units.
time (UTC)temp
F
wind
direction
speed
MPH
gust
MPH
rain 1hr
in
rain 24hr
in
rain mn
in
humidity
%
barometer
mb
20260505173017 50 277 6.0 10.0 0.00 0.39 0.00 76 1013.7
20260505171510 50 278 4.0 7.0 0.00 0.39 0.00 77 1013.6
20260505170017 49 41 4.0 11.0 0.00 0.39 0.00 82 1013.6
20260505164518 48 327 7.0 10.0 0.00 0.39 0.00 82 1013.5
20260505163008 47 42 4.0 7.0 0.00 0.39 0.00 85 1013.5
20260505161507 46 331 2.0 6.0 0.00 0.39 0.00 88 1013.3
20260505153019 44 290 1.0 4.0 0.00 0.39 0.00 90 1012.9
20260505151503 43 355 3.0 5.0 0.00 0.39 0.00 91 1012.8
20260505124535 41 325 2.0 4.0 0.00 0.39 0.00 94 1011.3
20260505123012 41 339 2.0 6.0 0.00 0.39 0.00 94 1011.1
20260505121517 41 320 2.0 5.0 0.00 0.39 0.00 94 1011.3
20260505120023 40 16 5.0 7.0 0.00 0.39 0.00 94 1011.2
20260505114523 40 345 4.0 8.0 0.00 0.39 0.00 94 1010.9
20260505113024 40 292 3.0 6.0 0.00 0.39 0.00 94 1010.9
20260505111512 39 313 2.0 4.0 0.00 0.39 0.00 94 1011.0
20260505101527 39 285 3.0 6.0 0.00 0.39 0.00 93 1011.3
20260505100014 39 244 2.0 3.0 0.00 0.39 0.00 93 1011.4
20260505094520 39 345 3.0 6.0 0.00 0.39 0.00 93 1011.3
20260505093004 40 304 3.0 6.0 0.00 0.39 0.00 93 1011.2
20260505091507 40 347 4.0 6.0 0.00 0.39 0.00 92 1011.4
20260505090011 40 160 2.0 3.0 0.00 0.39 0.00 92 1011.5
20260505084534 40 219 2.0 3.0 0.00 0.39 0.00 91 1011.8
20260505083018 40 166 0.0 1.0 0.00 0.39 0.00 91 1012.0
20260505081511 40 166 0.0 3.0 0.00 0.39 0.00 91 1012.0
20260505080009 40 214 0.0 2.0 0.00 0.39 0.00 91 1011.9
20260505074512 40 229 0.0 2.0 0.00 0.39 0.00 90 1012.1
20260505073016 40 273 2.0 5.0 0.00 0.39 0.00 90 1012.1
20260505071522 40 245 2.0 4.0 0.00 0.39 0.00 91 1012.1
20260505070033 40 271 3.0 5.0 0.00 0.39 0.00 92 1011.8
20260505064508 40 141 3.0 7.0 0.00 0.39 0.39 92 1011.6
20260505063010 40 286 4.0 8.0 0.00 0.39 0.39 92 1011.1
20260505061520 41 342 4.0 7.0 0.02 0.39 0.39 92 1010.9
20260505060028 41 337 6.0 8.0 0.03 0.39 0.39 92 1011.3
20260505054527 41 326 3.0 4.0 0.07 0.39 0.39 91 1011.5
20260505053011 41 128 3.0 5.0 0.08 0.39 0.39 92 1011.6
20260505051517 42 349 5.0 9.0 0.06 0.37 0.37 92 1012.5
20260505041530 42 174 3.0 10.0 0.04 0.31 0.31 88 1011.8
20260505040013 42 208 6.0 10.0 0.03 0.30 0.30 92 1011.6
20260505034524 40 219 2.0 2.0 0.02 0.29 0.29 93 1012.0
20260505033022 40 170 0.0 2.0 0.00 0.27 0.27 93 1012.2
20260505031527 40 171 1.0 8.0 0.00 0.27 0.27 92 1011.5
20260505030026 41 128 6.0 11.0 0.00 0.27 0.27 91 1011.2
20260505024515 41 169 2.0 13.0 0.07 0.27 0.27 90 1010.8
20260505023019 40 220 7.0 19.0 0.08 0.27 0.27 91 1011.1
20260505021523 41 214 12.0 21.0 0.09 0.27 0.27 91 1011.5
20260505020024 41 209 12.0 19.0 0.12 0.27 0.27 92 1011.5
20260505014528 42 169 15.0 29.0 0.05 0.20 0.20 89 1012.0
20260505013016 45 131 14.0 19.0 0.04 0.19 0.19 86 1011.7
20260505011543 46 243 7.0 18.0 0.03 0.18 0.18 82 1011.0
20260505010014 47 314 2.0 12.0 0.00 0.15 0.15 79 1010.3
20260505004507 48 293 13.0 18.0 0.00 0.15 0.15 74 1009.7
20260505003012 49 283 12.0 22.0 0.00 0.15 0.15 73 1009.3
20260505001503 49 287 9.0 23.0 0.00 0.15 0.15 75 1009.6
20260505000004 50 287 12.0 22.0 0.00 0.15 0.15 73 1009.9
20260504234507 51 236 16.0 24.0 0.00 0.15 0.15 72 1009.7
20260504233008 52 256 13.0 25.0 0.00 0.15 0.15 70 1009.7
20260504231515 52 286 15.0 19.0 0.04 0.15 0.15 71 1010.1
20260504230004 52 281 11.0 15.0 0.11 0.15 0.15 76 1010.3
20260504224511 49 217 6.0 18.0 0.13 0.15 0.15 85 1010.6
20260504223008 48 250 7.0 15.0 0.15 0.15 0.15 85 1010.8
20260504221512 49 125 9.0 14.0 0.11 0.11 0.11 82 1011.1
20260504220017 49 221 3.0 14.0 0.04 0.04 0.04 79 1010.6
20260504214522 51 139 5.0 19.0 0.02 0.02 0.02 75 1011.0
20260504213004 55 213 8.0 15.0 0.00 0.00 0.00 59 1010.3
20260504211511 56 140 5.0 11.0 0.00 0.00 0.00 57 1010.8
20260504210019 58 269 9.0 15.0 0.00 0.00 0.00 50 1010.7
20260504204520 58 283 6.0 18.0 0.00 0.00 0.00 51 1010.7
20260504203025 58 329 12.0 17.0 0.00 0.00 0.00 51 1010.8
20260504201507 57 285 10.0 16.0 0.00 0.00 0.00 52 1011.1
20260504200013 57 309 8.0 16.0 0.00 0.00 0.00 56 1011.4
20260504194517 55 290 8.0 17.0 0.00 0.00 0.00 57 1011.6
20260504193020 54 285 11.0 19.0 0.00 0.00 0.00 61 1011.8
20260504191524 54 324 8.0 15.0 0.00 0.00 0.00 62 1011.9
20260504190006 54 315 11.0 16.0 0.00 0.00 0.00 61 1012.0
20260504184515 55 285 8.0 14.0 0.00 0.00 0.00 61 1012.0
20260504183018 54 285 5.0 11.0 0.00 0.00 0.00 60 1012.1
20260504181521 55 159 2.0 6.0 0.00 0.00 0.00 57 1012.3
20260504180025 54 171 5.0 10.0 0.00 0.00 0.00 60 1012.3
20260504174528 54 205 6.0 11.0 0.00 0.00 0.00 60 1012.5